When you browse on this site, cookies collect data to enhance your experience and personalize the content and advertising you see.
Visit our Privacy Policy to learn more. By continuing to use the site, you agree to this use of cookies and data.
  • In United Kingdom
  • List of Countries
  • For 7 days
  • Water Temperature
  • Weather Map
  • Weather Widgets
  • user-avatar
    Login

    Hourly Weather Darmanesti

    Today, 28 February, Friday

    Time Temperature Precipitation Wind Pressure Humidity
    00:00 +1°C° 0 mm 1 mps 709 mmHg 89%
    01:00 0°C° 0 mm 1 mps 709 mmHg 89%
    02:00 0°C° 0 mm 1 mps 710 mmHg 90%
    03:00 -1°C° 0 mm 1 mps 710 mmHg 90%
    04:00 -3°C° 0 mm 2 mps 710 mmHg 90%
    05:00 -3°C° 0 mm 2 mps 710 mmHg 90%
    06:00 -3°C° 0 mm 2 mps 710 mmHg 88%
    07:00 -3°C° 0 mm 2 mps 710 mmHg 86%
    08:00 -2°C° 0 mm 2 mps 710 mmHg 84%
    09:00 +1°C° 0 mm 2 mps 711 mmHg 75%
    10:00 +3°C° 0 mm 2 mps 711 mmHg 66%
    11:00 +4°C° 0 mm 2 mps 711 mmHg 57%
    12:00 +5°C° 0 mm 2 mps 711 mmHg 55%
    13:00 +6°C° 0 mm 2 mps 710 mmHg 52%
    14:00 +6°C° 0 mm 2 mps 710 mmHg 49%
    15:00 +6°C° 0 mm 2 mps 710 mmHg 54%
    16:00 +6°C° 0 mm 1 mps 710 mmHg 59%
    17:00 +6°C° 0 mm 1 mps 710 mmHg 65%
    18:00 +5°C° 0 mm 1 mps 710 mmHg 71%
    19:00 +4°C° 0 mm 1 mps 711 mmHg 77%
    20:00 +3°C° 0 mm 1 mps 711 mmHg 83%
    21:00 +3°C° 0 mm 1 mps 711 mmHg 84%
    22:00 +3°C° 0 mm 1 mps 712 mmHg 85%
    23:00 +1°C° 0 mm 2 mps 712 mmHg 87%

    Tomorrow, 29 February, Saturday

    Time Temperature Precipitation Wind Pressure Humidity
    00:00 +1°C° 0.1 mm 2 mps 713 mmHg 88%
    01:00 0°C° 0.1 mm 3 mps 713 mmHg 90%
    02:00 0°C° 0.1 mm 3 mps 714 mmHg 92%
    03:00 -1°C° 0.1 mm 3 mps 714 mmHg 92%
    04:00 -1°C° 0.1 mm 3 mps 715 mmHg 92%
    05:00 -1°C° 0.1 mm 3 mps 715 mmHg 91%
    06:00 -1°C° 0 mm 3 mps 716 mmHg 89%
    07:00 -1°C° 0 mm 2 mps 716 mmHg 88%
    08:00 -1°C° 0 mm 2 mps 717 mmHg 86%
    09:00 +1°C° 0 mm 2 mps 717 mmHg 81%
    10:00 +2°C° 0 mm 2 mps 718 mmHg 75%
    11:00 +3°C° 0 mm 2 mps 718 mmHg 70%
    12:00 +4°C° 0 mm 2 mps 718 mmHg 68%
    13:00 +4°C° 0 mm 2 mps 718 mmHg 65%
    14:00 +6°C° 0 mm 1 mps 718 mmHg 63%
    15:00 +5°C° 0 mm 1 mps 718 mmHg 64%
    16:00 +5°C° 0 mm 1 mps 718 mmHg 65%
    17:00 +5°C° 0 mm 1 mps 718 mmHg 66%
    18:00 +4°C° 0 mm 1 mps 718 mmHg 71%
    19:00 +1°C° 0 mm 2 mps 718 mmHg 77%
    20:00 -1°C° 0 mm 2 mps 718 mmHg 83%
    21:00 -1°C° 0 mm 2 mps 718 mmHg 82%
    22:00 -2°C° 0 mm 2 mps 718 mmHg 82%
    23:00 -2°C° 0 mm 2 mps 718 mmHg 81%

    Day after tomorrow, 1 March, Sunday

    Time Temperature Precipitation Wind Pressure Humidity
    00:00 -2°C° 0 mm 2 mps 717 mmHg 82%
    01:00 -2°C° 0 mm 2 mps 717 mmHg 83%
    02:00 -2°C° 0 mm 2 mps 717 mmHg 84%
    03:00 -2°C° 0 mm 2 mps 717 mmHg 84%
    04:00 -1°C° 0 mm 2 mps 717 mmHg 84%
    05:00 -1°C° 0 mm 2 mps 716 mmHg 85%
    06:00 -1°C° 0 mm 2 mps 717 mmHg 81%
    07:00 +1°C° 0 mm 2 mps 717 mmHg 78%
    08:00 +1°C° 0 mm 2 mps 717 mmHg 75%
    09:00 +3°C° 0 mm 2 mps 717 mmHg 68%
    10:00 +5°C° 0 mm 2 mps 717 mmHg 61%
    11:00 +7°C° 0 mm 2 mps 717 mmHg 55%
    12:00 +8°C° 0 mm 2 mps 717 mmHg 53%
    13:00 +8°C° 0 mm 3 mps 716 mmHg 50%
    14:00 +9°C° 0 mm 3 mps 716 mmHg 48%
    15:00 +9°C° 0 mm 3 mps 716 mmHg 53%
    16:00 +8°C° 0 mm 2 mps 715 mmHg 58%
    17:00 +7°C° 0 mm 2 mps 715 mmHg 63%
    18:00 +6°C° 0 mm 2 mps 715 mmHg 66%
    19:00 +5°C° 0 mm 2 mps 716 mmHg 68%
    20:00 +4°C° 0 mm 2 mps 716 mmHg 71%
    21:00 +3°C° 0 mm 2 mps 716 mmHg 71%
    22:00 +3°C° 0 mm 2 mps 715 mmHg 72%
    23:00 +3°C° 0 mm 1 mps 715 mmHg 72%

    2 March, Monday

    Time Temperature Precipitation Wind Pressure Humidity
    00:00 +3°C° 0 mm 1 mps 715 mmHg 71%
    01:00 +4°C° 0 mm 1 mps 715 mmHg 70%
    02:00 +4°C° 0 mm 1 mps 714 mmHg 69%
    03:00 +4°C° 0 mm 1 mps 714 mmHg 68%
    04:00 +4°C° 0 mm 1 mps 713 mmHg 67%
    05:00 +4°C° 0 mm 1 mps 713 mmHg 66%
    06:00 +4°C° 0 mm 1 mps 713 mmHg 68%
    07:00 +3°C° 0 mm 2 mps 712 mmHg 69%
    08:00 +4°C° 0 mm 2 mps 712 mmHg 70%
    09:00 +6°C° 0 mm 2 mps 712 mmHg 67%
    10:00 +8°C° 0 mm 3 mps 711 mmHg 64%
    11:00 +9°C° 0 mm 3 mps 711 mmHg 61%
    12:00 +10°C° 0 mm 4 mps 711 mmHg 58%
    13:00 +11°C° 0 mm 4 mps 710 mmHg 56%
    14:00 +12°C° 0 mm 4 mps 710 mmHg 53%
    15:00 +11°C° 0 mm 4 mps 710 mmHg 58%
    16:00 +10°C° 0 mm 3 mps 709 mmHg 62%
    17:00 +9°C° 0 mm 3 mps 709 mmHg 66%
    18:00 +8°C° 0 mm 2 mps 709 mmHg 70%
    19:00 +7°C° 0 mm 2 mps 709 mmHg 74%
    20:00 +7°C° 0 mm 2 mps 710 mmHg 78%
    21:00 +6°C° 0 mm 2 mps 710 mmHg 81%
    22:00 +6°C° 0 mm 2 mps 710 mmHg 83%
    23:00 +5°C° 0 mm 2 mps 710 mmHg 85%

    3 March, Tuesday

    Time Temperature Precipitation Wind Pressure Humidity
    00:00 +5°C° 0 mm 2 mps 711 mmHg 85%
    01:00 +5°C° 0 mm 2 mps 711 mmHg 86%
    02:00 +5°C° 0 mm 2 mps 711 mmHg 87%
    03:00 +4°C° 0 mm 2 mps 712 mmHg 87%
    04:00 +4°C° 0 mm 2 mps 712 mmHg 87%
    05:00 +5°C° 0 mm 1 mps 712 mmHg 88%
    06:00 +5°C° 0 mm 1 mps 712 mmHg 86%
    07:00 +6°C° 0 mm 1 mps 713 mmHg 85%
    08:00 +6°C° 0 mm 1 mps 713 mmHg 83%
    09:00 +8°C° 0 mm 1 mps 713 mmHg 75%
    10:00 +9°C° 0 mm 2 mps 713 mmHg 66%
    11:00 +12°C° 0 mm 2 mps 713 mmHg 58%
    12:00 +12°C° 0 mm 3 mps 712 mmHg 54%
    13:00 +13°C° 0 mm 3 mps 712 mmHg 50%
    14:00 +14°C° 0 mm 4 mps 711 mmHg 46%
    15:00 +13°C° 0 mm 4 mps 711 mmHg 51%
    16:00 +12°C° 0 mm 4 mps 710 mmHg 56%
    17:00 +12°C° 0 mm 4 mps 710 mmHg 60%
    18:00 +11°C° 0 mm 3 mps 710 mmHg 68%
    19:00 +9°C° 0 mm 2 mps 710 mmHg 75%
    20:00 +8°C° 0 mm 2 mps 710 mmHg 82%
    21:00 +8°C° 0 mm 2 mps 710 mmHg 83%
    22:00 +8°C° 0 mm 2 mps 710 mmHg 84%
    23:00 +8°C° 0 mm 2 mps 710 mmHg 85%

    4 March, Wednesday

    Time Temperature Precipitation Wind Pressure Humidity
    00:00 +8°C° 0 mm 2 mps 710 mmHg 86%
    01:00 +9°C° 0 mm 1 mps 710 mmHg 87%
    02:00 +9°C° 0 mm 1 mps 710 mmHg 89%
    03:00 +8°C° 0 mm 1 mps 710 mmHg 89%
    04:00 +8°C° 0 mm 1 mps 710 mmHg 89%
    05:00 +8°C° 0 mm 1 mps 710 mmHg 90%
    06:00 +8°C° 0 mm 1 mps 710 mmHg 89%
    07:00 +8°C° 0 mm 1 mps 710 mmHg 89%
    08:00 +9°C° 0 mm 1 mps 710 mmHg 88%
    09:00 +9°C° 0 mm 2 mps 710 mmHg 80%
    10:00 +11°C° 0 mm 3 mps 710 mmHg 72%
    11:00 +13°C° 0 mm 3 mps 711 mmHg 64%
    12:00 +13°C° 0 mm 4 mps 710 mmHg 64%
    13:00 +13°C° 0 mm 4 mps 710 mmHg 65%
    14:00 +13°C° 0 mm 4 mps 710 mmHg 65%
    15:00 +12°C° 0 mm 4 mps 710 mmHg 67%
    16:00 +12°C° 0 mm 3 mps 709 mmHg 70%
    17:00 +12°C° 0 mm 3 mps 709 mmHg 73%
    18:00 +12°C° 0 mm 2 mps 709 mmHg 76%
    19:00 +10°C° 0 mm 2 mps 710 mmHg 80%
    20:00 +11°C° 0 mm 1 mps 710 mmHg 83%
    21:00 +10°C° 0 mm 1 mps 710 mmHg 84%
    22:00 +10°C° 0 mm 1 mps 710 mmHg 85%
    23:00 +10°C° 0 mm 1 mps 710 mmHg 86%
    Show more